Home   Weather   Tabriz   Past weeks

Flag for Iran Past Weather in Tabriz, Iran — Yesterday and Last 2 Weeks

Now
66 °F

Passing clouds.


Feels Like: 66 °F
Forecast: 40 / 73 °F
Wind: 21 mph from East

Location: Tabriz Airport

Current Time: Oct 1, 2016 at 3:46:07 PM

Latest Report: Oct 1, 2016 at 3:00 PM


Visibility: N/A

Pressure: 30.27 "Hg (25.73 "Hg at 1388m altitude)

Humidity: 28%

Dew Point: 32 °F

Location of TabrizLocation

Past Weather in Tabriz — Graph

°F

Tabriz Temperature Yesterday

Maximum temperature yesterday: 66 °F (at 3:30 PM)
Minimum temperature yesterday: 46 °F (at 5:00 AM)
Average temperature yesterday: 56 °F

High & Low Weather Summary for the Past Weeks

 TemperatureHumidityPressure
High84 °F (Sep 16, 4:00 PM)82% (Sep 18, 6:30 AM)30.33 "Hg (Sep 18, 6:30 AM)
Low46 °F (Sep 25, 3:30 AM)10% (Sep 22, 3:30 PM)29.86 "Hg (Sep 17, 4:30 PM)
Average65 °F39%30.04 "Hg
* Reported Sep 16 3:30 PM — Oct 1 2:30 PM, Tabriz, Weather by CustomWeather, © 2016

Note: Actual official high and low records may vary slightly from our data, if they occured in-between our weather recording intervals... More about our weather records

Advertising

Tabriz Weather History for the Previous 24 Hours

Scroll right to see more
 ConditionsComfort  
Time TempWeatherWind HumidityBarometerVisibility
2:30 PM
Sat, Oct 1
66 °FPassing clouds.14 mph28%30.27 "HgN/A
2:00 PM66 °FPassing clouds.18 mph26%30.27 "HgN/A
1:30 PM66 °FPassing clouds.16 mph26%30.27 "HgN/A
1:00 PM66 °FPassing clouds.12 mph26%30.30 "HgN/A
12:30 PM64 °FPassing clouds.18 mph28%30.30 "HgN/A
12:00 PM63 °FPassing clouds.14 mph32%30.30 "HgN/A
11:30 AM63 °FPassing clouds.9 mph32%30.30 "HgN/A
11:00 AM61 °FPassing clouds.12 mph36%30.33 "HgN/A
10:30 AM59 °FPassing clouds.9 mph42%30.33 "HgN/A
10:00 AM57 °FPassing clouds.14 mph41%30.33 "HgN/A
9:30 AM55 °FPassing clouds.14 mph44%30.33 "HgN/A
9:00 AM54 °FPassing clouds.16 mph47%30.30 "HgN/A
8:30 AM52 °FPassing clouds.14 mph50%30.30 "HgN/A
8:00 AM52 °FPassing clouds.14 mph50%30.30 "HgN/A
7:30 AM50 °FPassing clouds.9 mph50%30.27 "HgN/A
7:00 AM48 °FPassing clouds.9 mph58%30.27 "HgN/A
6:30 AM46 °FPassing clouds.12 mph62%30.27 "HgN/A
6:00 AM46 °FPassing clouds.12 mph62%30.27 "HgN/A
5:30 AM46 °FClear.9 mph62%30.27 "Hg10 mi
5:00 AM50 °FClear.9 mph50%30.27 "Hg10 mi
4:30 AM48 °FClear.14 mph54%30.27 "Hg10 mi
4:00 AM48 °FClear.2 mph50%30.27 "Hg10 mi
3:30 AM50 °FClear.16 mph50%30.24 "Hg10 mi
3:00 AM50 °FClear.14 mph50%30.21 "Hg10 mi
2:30 AM52 °FClear.23 mph47%30.21 "Hg10 mi
2:00 AM52 °FClear.9 mph50%30.21 "Hg10 mi
1:30 AM50 °FClear.14 mph50%30.21 "Hg10 mi
1:00 AM52 °FClear.12 mph54%30.18 "Hg10 mi
12:30 AM50 °FClear.7 mph54%30.18 "Hg10 mi
12:00 AM52 °FPassing clouds.7 mph54%30.18 "HgN/A
11:30 PM
Fri, Sep 30
52 °FPassing clouds.9 mph54%30.18 "HgN/A
11:00 PM52 °FPassing clouds.16 mph50%30.18 "HgN/A
10:30 PM54 °FPassing clouds.16 mph51%30.18 "HgN/A
10:00 PM54 °FPassing clouds.14 mph51%30.15 "HgN/A
9:30 PM54 °FPassing clouds.21 mph51%30.15 "HgN/A
9:00 PM54 °FPassing clouds.21 mph51%30.15 "HgN/A
8:30 PM55 °FPassing clouds.12 mph47%30.12 "HgN/A
8:00 PM55 °FPassing clouds.9 mph47%30.12 "HgN/A
7:30 PM57 °FPassing clouds.9 mph44%30.09 "HgN/A
7:00 PM59 °FPassing clouds.9 mph42%30.07 "HgN/A
6:30 PM59 °FPassing clouds.12 mph42%30.07 "HgN/A
6:00 PM61 °FPassing clouds.18 mph39%30.04 "HgN/A
5:30 PM63 °FScattered clouds.16 mph37%30.04 "HgN/A
5:00 PM64 °FScattered showers. Scattered clouds.16 mph32%30.01 "HgN/A
4:30 PM64 °FPartly sunny.16 mph32%30.01 "HgN/A
4:00 PM64 °FPartly sunny.14 mph30%30.01 "HgN/A
3:30 PM66 °FPartly sunny.12 mph30%30.01 "HgN/A
3:00 PM64 °FPartly sunny.5 mph30%30.01 "HgN/A
Weather by CustomWeather, © 2016

See weather overviewHow to use our weather pages